This demonstration page uses our WeatherBlox Daily Observations layout. Learn more.

Left ArrowRight Arrow

Hourly Observations for January 8, 2016

Temp ( °F °C ) Dew Point ( °F °C ) Humidity (%) Winds ( mph kmh ) Pressure ( in mb ) Visibility ( mi km ) Precip ( " mm )
12:53 am 00:53 Cloudy with Light Rain 54 12.2 45 7.2 72 72 ESE 8 13 30.01 1016 10 16 0.00 0.03
1:53 am 01:53 Cloudy with Light Rain 51 10.6 47 8.3 86 86 E 3 6 29.98 1015 8 13 0.03 0.76
2:53 am 02:53 Cloudy with Rain 50 10 47 8.3 89 89 ENE 5 7 29.98 1015 7 11 0.03 0.76
3:53 am 03:53 Cloudy with Light Rain 50 10 47 8.3 89 89 ENE 8 13 29.98 1015 6 10 0.15 3.81
4:32 am 04:32 Cloudy 50 10 46 8 88 88 ENE 7 11 30.03 1017 10 16 0.00 0.00
4:53 am 04:53 Cloudy with Light Rain 49 9.4 46 7.8 90 90 ENE 8 13 29.98 1015 8 13 0.00 0.03
5:45 am 05:45 Cloudy 49 9.4 46 7.8 90 90 ENE 6 9 30.03 1017 9 14 0.03 0.76
5:53 am 05:53 Cloudy with Light Rain 49 9.4 46 7.8 90 90 ENE 6 9 29.98 1015 7 11 0.03 0.76
6:11 am 06:11 Cloudy with Light Rain 49 9.4 46 7.8 90 90 ENE 8 13 30.03 1017 6 10 0.00 0.03
6:53 am 06:53 Cloudy with Mist and Fog 49 9.4 46 7.8 90 90 ENE 8 13 30.00 1016 6 10 0.00 0.03
7:07 am 07:07 Cloudy 49 9.4 46 7.8 90 90 E 6 9 30.03 1017 10 16 0.01 0.25
7:53 am 07:53 Cloudy 49 9.4 45 7.2 86 86 E 6 9 30.00 1016 10 16 0.01 0.25
8:01 am 08:01 Cloudy 49 9.4 45 7.2 86 86 E 7 11 30.03 1017 10 16 0.00 0.00
8:53 am 08:53 Cloudy 49 9.4 45 7.2 86 86 E 6 9 30.01 1016 10 16 0.00 0.00
9:53 am 09:53 Cloudy 50 10 46 7.8 86 86 ENE 6 9 30.04 1017 9 14 0.00 0.00
10:53 am 10:53 Cloudy 50 10 47 8.3 89 89 NE 5 7 30.04 1017 8 13 0.00 0.00
11:13 am 11:13 Cloudy with Mist and Fog 50 10 47 8.3 89 89 ENE 7 11 30.09 1019 2 3 0.00 0.00
11:25 am 11:25 Cloudy with Mist and Fog 50 10 47 8.3 89 89 ENE 3 6 30.06 1018 3 4 0.00 0.00
11:48 am 11:48 Cloudy with Mist and Fog 52 11 48 9 88 88 VRB 3 6 30.06 1018 3 5 0.00 0.00
11:53 am 11:53 Cloudy with Mist and Fog 50 10 48 8.9 93 93 NE 3 6 30.03 1017 3 5 0.00 0.00
12:53 pm 12:53 Cloudy 51 10.6 48 8.9 89 89 E 5 7 30.00 1016 8 13 0.00 0.00
1:53 pm 13:53 Cloudy 52 11.1 47 8.3 83 83 ESE 3 6 29.98 1015 10 16 0.00 0.00
2:53 pm 14:53 Cloudy 53 11.7 48 8.9 83 83 E 6 9 29.97 1015 10 16 0.00 0.00
3:53 pm 15:53 Cloudy 53 11.7 48 8.9 83 83 ENE 5 7 29.96 1015 10 16 0.00 0.00
4:06 pm 16:06 Cloudy 54 12 48 9 82 82 ENE 5 7 29.97 1015 10 16 0.00 0.00
4:16 pm 16:16 Cloudy 54 12 48 9 82 82 E 3 6 29.97 1015 10 16 0.00 0.00
4:53 pm 16:53 Cloudy 53 11.7 48 8.9 83 83 E 6 9 29.97 1015 10 16 0.00 0.00
5:53 pm 17:53 Cloudy 53 11.7 48 8.9 83 83 NE 3 6 29.98 1015 10 16 0.00 0.00
6:53 pm 18:53 Cloudy 52 11.1 48 8.9 86 86 E 6 9 29.99 1016 10 16 0.00 0.00
7:53 pm 19:53 Cloudy 52 11.1 48 8.9 86 86 E 6 9 30.00 1016 8 13 0.00 0.00
8:05 pm 20:05 Cloudy 52 11.1 48 8.9 86 86 ENE 5 7 30.06 1018 7 11 0.00 0.00
8:53 pm 20:53 Cloudy 52 11.1 48 8.9 86 86 E 6 9 30.02 1017 7 11 0.00 0.00
9:53 pm 21:53 Cloudy 51 10.6 48 8.9 89 89 E 7 11 30.02 1017 7 11 0.00 0.00
10:53 pm 22:53 Cloudy 51 10.6 48 8.9 89 89 ENE 7 11 30.02 1017 7 11 0.00 0.00
11:50 pm 23:50 Cloudy 52 11 46 8 82 82 ENE 8 13 30.03 1017 8 13 0.00 0.00
11:53 pm 23:53 Cloudy 51 10.6 47 8.3 86 86 ENE 8 13 30.00 1016 8 13 0.00 0.00

Powered by AerisWeather